CHAR37 Weather Reports


time (UTC)temp
C
wind
direction
speed
KPH
gust
KPH
rain 1hr
cm
rain 24hr
cm
rain mn
cm
humidity
%
barometer
mb
20260505004548 10 163 8.0 17.7 0.00 0.00 0.00 78 1006.6
20260505003055 10 113 8.0 14.5 0.00 0.00 0.00 78 1006.4
20260505001554 10 140 8.0 14.5 0.00 0.00 0.00 77 1006.1
20260505000054 10 150 4.8 11.3 0.00 0.00 0.00 76 1006.1
20260504234557 10 133 4.8 14.5 0.00 0.00 0.00 75 1005.9
20260504233049 11 130 4.8 14.5 0.00 0.00 0.00 73 1005.5
20260504231600 11 140 3.2 9.7 0.00 0.00 0.00 72 1005.3
20260504230049 11 155 9.7 14.5 0.00 0.00 0.00 71 1005.2
20260504224546 11 146 6.4 16.1 0.00 0.00 0.00 74 1005.1
20260504223050 11 178 8.0 16.1 0.00 0.00 0.00 73 1005.0
20260504221558 11 196 8.0 16.1 0.00 0.00 0.00 73 1004.9
20260504220049 11 167 12.9 20.9 0.00 0.00 0.00 71 1004.9
20260504214548 11 158 9.7 16.1 0.00 0.00 0.00 75 1004.9
20260504194607 11 0 3.2 6.4 0.00 0.00 0.00 74 1004.9
20260504193058 11 0 3.2 8.0 0.00 0.00 0.00 73 1005.1
20260504191552 11 0 1.6 8.0 0.00 0.00 0.00 73 1005.1
20260504190125 11 144 4.8 8.0 0.00 0.00 0.00 73 1005.3
20260504184557 11 165 4.8 11.3 0.00 0.00 0.00 73 1005.4
20260504183047 11 134 4.8 8.0 0.00 0.00 0.00 73 1005.3
20260504181603 11 167 3.2 14.5 0.00 0.00 0.00 73 1005.2
20260504180138 10 178 16.1 20.9 0.00 0.00 0.00 74 1005.3
20260504174551 10 176 11.3 24.1 0.00 0.00 0.00 74 1005.3
20260504173059 10 182 20.9 29.0 0.00 0.00 0.00 75 1005.1
20260504171551 10 166 20.9 32.2 0.00 0.00 0.00 74 1005.1
20260504034552 6 259 1.6 9.7 0.00 0.03 0.03 67 1007.2
20260504033050 7 261 4.8 9.7 0.00 0.03 0.03 65 1007.1
20260504031617 7 306 3.2 11.3 0.00 0.03 0.03 63 1007.0
20260504030050 7 278 3.2 9.7 0.00 0.03 0.03 62 1007.0
20260504024550 7 291 1.6 11.3 0.00 0.03 0.03 61 1007.0
20260504023049 7 273 8.0 12.9 0.00 0.03 0.03 60 1007.0
20260504021602 7 279 4.8 9.7 0.00 0.03 0.03 56 1007.0
20260504020052 8 308 6.4 17.7 0.00 0.03 0.03 56 1006.9
20260504014549 8 322 6.4 17.7 0.00 0.03 0.03 56 1006.8
20260504013051 8 336 9.7 27.4 0.00 0.03 0.03 54 1006.7